カタログに戻る

SL-12 R/B(2)

運用中GEO
NORAD 23451·ROCKET BODY·🇷🇺 Russia

打ち上げ Dec 28, 1994 から Baikonur Cosmodrome

Loading…

TLE

最新Source: Space-Track

元期: Sep 14, 2026, 05:40 UTC

1 23451U 94087D   26257.23623508 -.00000244  00000-0  00000-0 0  9995
2 23451  14.3058 350.3132 0008842 149.2234 220.8229  1.00065087 48174

AllMySatでSL-12 R/B(2)をリアルタイム追跡

Download on the App Store